This is the latest recevied weather packets stored in our database for station/object KK6LVQ-13. If no packets are shown the sender has not sent any weather packets the latest 10 day(s).
| Time | Temp. | Humidity | Pressure | Rain* | Wind** | Luminosity | Snow |
|---|---|---|---|---|---|---|---|
| 1777931099 | 14.44° C | 78% | 1020.7 hPa | 0 mm | - | 119 W/m² | - |
| 1777930795 | 14.44° C | 77% | 1020.4 hPa | 0 mm | - | 105 W/m² | - |
| 1777930491 | 14.44° C | 76% | 1020.6 hPa | 0 mm | - | 117 W/m² | - |
| 1777930189 | 15° C | 75% | 1020.8 hPa | 0 mm | - | 146 W/m² | - |
| 1777929885 | 15° C | 74% | 1021 hPa | 0 mm | - | 222 W/m² | - |
| 1777929582 | 15.56° C | 74% | 1020.6 hPa | 0 mm | - | 326 W/m² | - |
| 1777929278 | 15° C | 75% | 1020.8 hPa | 0 mm | - | 373 W/m² | - |
| 1777928976 | 15.56° C | 75% | 1020.8 hPa | 0 mm | - | 521 W/m² | - |
| 1777928673 | 15° C | 76% | 1020.7 hPa | 0 mm | - | 429 W/m² | - |
| 1777928370 | 15° C | 76% | 1020.8 hPa | 0 mm | - | 342 W/m² | - |
| 1777928067 | 14.44° C | 74% | 1020.8 hPa | 0 mm | - | 274 W/m² | - |
| 1777927766 | 14.44° C | 75% | 1020.9 hPa | 0 mm | - | 245 W/m² | - |
| 1777927464 | 14.44° C | 76% | 1021 hPa | 0 mm | - | 195 W/m² | - |
| 1777927163 | 14.44° C | 73% | 1020.8 hPa | 0 mm | - | 149 W/m² | - |
| 1777926860 | 14.44° C | 74% | 1020.7 hPa | 0 mm | - | 171 W/m² | - |
| 1777926555 | 14.44° C | 74% | 1021 hPa | 0 mm | - | 210 W/m² | - |
| 1777926253 | 15° C | 72% | 1020.8 hPa | 0 mm | - | 273 W/m² | - |
| 1777925949 | 14.44° C | 74% | 1021 hPa | 0 mm | - | 529 W/m² | - |
| 1777925647 | 14.44° C | 74% | 1020.7 hPa | 0 mm | - | 807 W/m² | - |
| 1777925344 | 13.89° C | 75% | 1020.9 hPa | 0 mm | - | 244 W/m² | - |
| 1777925040 | 13.89° C | 76% | 1020.9 hPa | 0 mm | - | 226 W/m² | - |
| 1777924737 | 13.89° C | 76% | 1020.8 hPa | 0 mm | - | 207 W/m² | - |
| 1777924432 | 14.44° C | 76% | 1020.9 hPa | 0 mm | - | 180 W/m² | - |
| 1777924130 | 13.89° C | 76% | 1020.8 hPa | 0 mm | - | 176 W/m² | - |
| 1777923825 | 14.44° C | 76% | 1021 hPa | 0 mm | - | 199 W/m² | - |
* Rain latest hour (hover to see other rain measurements)
** Current wind speed in m/s (hover to see current wind gust speed)